{"data":{"norad_id":60497,"intl_designator":"2024-149AF","name":"FLOCK 4BE-32","alt_names":[],"object_type":"PAYLOAD","status":"ACTIVE","operator":null,"country":"US","launch_date":"2024-08-16","launch_site_code":"AFWTR","launch_vehicle":null,"mission":null,"orbit_class":"UNKNOWN","rcs_meters":null,"size_class":null,"mass_kg":null,"dimensions":null,"purposes":["earth_obs"],"wikipedia_slug":null,"has_3d_model":false,"image_url":null,"decayed_at":null,"tle_current":{"epoch":"2026-09-19T04:15:43.879680Z","epoch_age_seconds":129015,"freshness":"FRESH","line1":"1 60497U 24149AF  26262.17759120  .00027534  00000+0  57145-3 0  9991","line2":"2 60497  97.3663 347.3060 0002347 294.3567  65.7437 15.45669401116839","mean_motion":15.45669401,"eccentricity":0.0002347,"inclination_deg":97.3663,"raan_deg":347.306,"arg_perigee_deg":294.3567,"mean_anomaly_deg":65.7437,"bstar":0.00057145,"rev_number":11683,"period_min":93.163518606784,"perigee_km":427.8141479613,"apogee_km":431.00961140542,"semimajor_km":6807.5488796834,"source":"CELESTRAK","updated_at":"2026-09-20T09:00:34.713830Z"}}}